User: anonymous   Login
Location: Unspecified
(0.0000°N, 0.0000°E)
Time: 21:43:10
(UTC+00:00)
Language:

GLOBAL-2 - Orbit

View from above orbital plane
View from above orbital plane
View from above satellite
View from above satellite

Ground track
Ground track

The orbit data is extracted from the following two-line orbital elements,

1 43812U 18099BG  23276.13551040  .00004571  00000-0  37404-3 0  9992
2 43812  97.5587 334.5560 0014102 115.2124 245.0563 14.99733784263406
Epoch (UTC): 03 October 2023 03:15:08
Eccentricity: 0.0014102
inclination: 97.5587°
perigee height: 558 km
apogee height: 577 km
right ascension of ascending node: 334.5560°
argument of perigee: 115.2124°
revolutions per day: 14.99733784
mean anomaly at epoch: 245.0563°
orbit number at epoch: 26340

The dashed part of the orbit path shows where the satellite is in the earth's shadow,  

DLR